Location: Unspecified
(30.2330°N, 120.0460°E)
Time: 18:55:40
(UTC+00:00)

Daily predictions for brighter satellites

Satellite Brightness Start Highest point End
(mag) Time Altitude Azimuth Time Altitude Azimuth Time Altitude Azimuth
Tiangong 1 3.2 12:02:01 10° NNW 12:03:37 15° NNE 12:03:37 15° NNE
COSMOS 2428 3.5 12:06:53 30° E 12:06:53 30° E 12:10:53 10° NE
Cosmos 44 4.5 12:02:21 10° NW 12:06:29 36° WSW 12:10:06 14° S
Delta 2 Rocket 4.2 12:05:07 10° W 12:08:59 47° N 12:11:05 26° NE
Cosmos 2315 Rocket 4.4 12:05:18 10° N 12:11:12 42° E 12:12:39 37° ESE
Helios 1B rocket 2.3 12:07:47 10° NNE 12:11:51 60° ESE 12:12:04 59° ESE
OPS 6432 4.4 12:08:26 10° SSW 12:12:46 78° ESE 12:13:19 60° NE
GPS 2-05 Rocket1 3.3 12:11:39 10° WNW 12:14:47 49° N 12:14:47 49° N
ASTRO E2 3.8 12:12:36 10° SW 12:15:11 31° SSW 12:15:11 31° SSW
Meteor 1-5 Rocket 4.2 12:12:24 10° SSW 12:17:44 75° W 12:23:02 10° N
BREEZE M DEB (TANK) 3.8 12:04:58 10° SW 12:18:08 68° NW 12:21:21 14° NE
Centaur AC-116 3.6 12:13:44 10° WSW 12:18:43 37° SSW 12:18:43 37° SSW
Cosmos 1302 Rocket 4.4 12:20:11 44° E 12:20:11 44° E 12:24:33 10° NNE
YAOGAN 6 3.1 12:23:22 49° N 12:23:22 49° N 12:26:03 10° N
Cosmos 1110 Rocket 4.4 12:23:14 10° SSW 12:28:20 63° WNW 12:33:28 10° N
Lacrosse 5 4.2 12:27:31 10° W 12:31:32 23° NW 12:35:33 10° N
Meteor 2-4 Rocket 4.3 12:29:00 10° NNW 12:34:30 56° W 12:38:06 22° SSW
Okean 1 Rocket 4.2 12:31:02 12° SSW 12:34:52 42° W 12:39:01 10° N
ATLAS 3B R/B 3.2 12:30:47 10° NNW 12:36:57 39° NE 12:37:28 38° ENE
Cosmos 220 Rocket 4.2 12:33:45 10° NNW 12:37:30 66° N 12:37:30 66° N
USA 267 4.0 12:36:06 28° S 12:39:08 44° SW 12:45:21 10° NW
Cosmos 1025 Rocket 3.6 12:38:25 10° N 12:41:37 50° N 12:41:37 50° N
Resurs 01 Rocket 4.4 12:49:41 10° SW 12:52:00 14° W 12:54:20 10° WNW
Okean 1-7 Rocket 4.4 12:51:44 10° NNW 12:55:14 51° NW 12:55:14 51° NW
Helios 1A 4.1 12:57:59 42° WNW 12:57:59 42° WNW 13:01:23 10° NNW
ARGOS 3.9 12:59:02 43° NNE 12:59:02 43° NNE 13:02:49 10° N
Atlas Centaur 2 2.9 12:59:28 10° W 13:07:15 58° SSW 13:07:15 58° SSW
Aureole 3 Rocket 4.2 13:03:57 10° N 13:10:34 64° NNE 13:10:34 64° NNE
Cosmos 1818 4.2 13:11:58 53° WNW 13:12:10 54° WNW 13:17:29 10° NNE
Cosmos 2263 Rocket 3.5 13:10:18 10° NW 13:15:16 32° WSW 13:16:02 30° WSW
Cosmos 2278 Rocket 4.5 13:16:30 10° NNE 13:17:40 13° NNE 13:17:40 13° NNE
Cosmos 1844 Rocket 4.0 13:16:53 10° N 13:20:09 32° NNE 13:20:09 32° NNE
ERS-1 Rocket 4.3 13:26:44 37° NW 13:26:44 37° NW 13:30:08 10° NNW
Cosmos 2219 Rocket 3.9 13:34:19 24° N 13:34:19 24° N 13:36:32 10° NNE
Centaur D AC-29 3.9 13:26:09 10° WSW 13:31:25 23° SW 13:31:25 23° SW
H-2A R/B 4.1 13:52:51 23° NNW 13:52:51 23° NNW 13:54:42 10° NNW
COSMOS 2428 4.5 13:48:43 25° W 13:50:02 27° WNW 13:54:53 10° N
Cosmos 2333 Rocket 4.4 14:06:41 19° N 14:06:41 19° N 14:08:23 10° N
ATLAS 3B R/B 4.5 14:21:50 10° NW 14:24:44 22° WNW 14:24:44 22° WNW
FALCON 9 R/B 4.2 14:32:32 79° ENE 14:32:32 79° ENE 15:05:47 10° ENE
CENTAUR R/B 4.4 15:09:16 10° NNW 15:13:25 34° NNW 15:13:25 34° NNW
Cosmos 2082 Rocket 4.5 18:05:15 16° E 18:05:15 16° E 18:07:52 10° ENE
SL-16 R/B 3.6 18:35:19 36° NNW 18:35:19 36° NNW 18:38:47 10° NNW
ARIANE 5 R/B 4.1 18:46:27 10° N 18:48:57 27° NNW 18:48:57 27° NNW
Okean O Rocket 4.3 18:50:14 10° ENE 18:52:17 13° E 18:54:07 11° ESE
Cosmos 1680 Rocket 4.4 18:53:14 43° E 18:53:14 43° E 18:58:05 10° NNE
Resurs 1-4 Rocket 3.8 18:49:56 10° N 18:52:06 23° NNW 18:52:06 23° NNW
Cosmos 1833 Rocket 3.2 18:55:49 53° ESE 18:55:49 53° ESE 19:01:12 10° NNE
Cosmos 2061 Rocket 4.0 18:58:50 72° SE 18:59:20 77° E 19:05:46 10° N
Cosmos 2016 Rocket 4.2 19:02:36 53° SE 19:03:44 64° E 19:09:45 10° NNE
Delta 128 4.4 19:07:30 69° SE 19:07:30 69° SE 19:13:44 10° E
CZ-2D R/B 4.0 19:13:00 10° NNW 19:15:00 18° NW 19:15:00 18° NW
Cosmos 2084 4.2 19:19:47 46° NE 19:19:47 46° NE 19:22:41 10° NE
Cosmos 1725 Rocket 4.4 19:15:51 29° SSE 19:18:58 58° E 19:25:01 10° NNE
Cosmos 2228 Rocket 4.5 19:24:55 28° NNW 19:24:55 28° NNW 19:27:15 10° N
Cosmos 192 4.3 19:23:24 72° NNW 19:23:24 72° NNW 19:27:57 10° NNE
Cosmos 2100 Rocket 4.2 19:25:10 51° WNW 19:25:10 51° WNW 19:31:15 10° N
Cosmos 1802 Rocket 3.9 19:26:28 61° WSW 19:27:06 65° W 19:33:19 10° N
Cosmos 2278 4.1 19:24:26 10° NNW 19:30:03 62° ENE 19:35:37 10° SSE
Lacrosse 5 3.3 19:28:11 10° NNW 19:32:53 37° NE 19:37:34 10° ESE
Cosmos 1697 Rocket 4.4 19:28:25 10° N 19:33:31 33° ENE 19:38:34 10° SE
NOSS 3-1 (C) 4.0 19:26:33 10° NNW 19:34:30 76° WSW 19:43:01 10° SSE
Cosmos 1892 2.9 19:32:01 10° N 19:35:51 67° E 19:35:53 67° E
ADEOS II 2.0 19:33:54 10° NNE 19:39:11 88° ESE 19:41:03 42° S
OAO 2 Rocket 3.3 19:40:01 56° WNW 19:40:49 67° NNW 19:45:44 10° ENE
ATLAS 2A CENTAUR R/B 4.2 19:43:09 16° SE 19:43:09 16° SE 19:44:28 10° SE
GPS 2-04 Rocket1 3.4 19:42:30 38° ESE 19:42:30 38° ESE 19:45:04 10° E
PSLV R/B 3.9 19:38:09 10° NNE 19:42:17 79° E 19:42:55 62° S
Cosmos 2082 Rocket 2.4 19:47:08 43° W 19:47:59 47° WNW 19:53:24 10° N
PSLV R/B 3.6 19:44:20 10° NNE 19:48:38 74° E 19:50:21 35° S
MOS 1-B 4.4 19:46:27 10° N 19:52:10 60° WNW 19:54:26 36° SW
Hubble Space Telescope 0.7 19:52:09 63° SSW 19:52:19 64° S 19:56:25 10° ESE
Tsikada Rocket 4.2 19:47:41 10° N 19:54:03 76° E 20:00:26 10° S
Tiangong 2 3.8 19:54:50 12° NNW 19:55:24 12° NNW 19:56:48 10° NNE
Cosmos 1151 Rocket 4.3 19:59:33 24° NW 19:59:33 24° NW 20:02:11 10° NNW
Cosmos 1933 Rocket 4.3 19:59:31 10° NNW 20:03:08 34° WNW 20:03:08 34° WNW
Aurora 2 Rocket 3.4 20:11:49 20° S 20:12:02 20° S 20:14:25 10° ESE
CZ-4B R/B 3.1 20:07:42 10° NNE 20:13:08 86° WNW 20:18:27 10° SSW
Cosmos 1656 3.6 20:09:23 10° NNW 20:15:02 65° WSW 20:20:38 10° S
NOSS 7 (E) 4.4 20:14:12 29° SSW 20:16:00 87° NW 20:19:19 10° NNE
Cosmos 1707 Rocket 3.4 20:12:37 13° S 20:16:28 80° W 20:20:52 10° N
CZ-4B R/B 3.6 20:15:27 10° N 20:19:41 41° WNW 20:21:57 24° SW
Meteor 2-3 Rocket 4.1 20:16:02 10° NNW 20:21:18 41° W 20:26:37 10° SSW
Cosmos 1455 3.6 20:21:46 20° WNW 20:21:46 20° WNW 20:24:19 10° NNW
Cosmos 2369 4.1 20:20:23 10° NW 20:25:33 37° WSW 20:30:41 10° S
NOSS 7 (D) 4.5 20:24:41 21° SW 20:27:06 74° WNW 20:30:28 10° NNE
Timation 2 Rocket 4.1 20:24:06 18° SW 20:28:25 52° WNW 20:34:21 10° N
Okean O Rocket 2.1 20:24:39 10° N 20:28:45 39° WNW 20:31:35 18° SW
Okean-O 3.8 20:27:21 10° NNE 20:31:35 44° E 20:35:48 10° S
CZ-2C R/B 4.2 20:27:49 10° SSE 20:32:11 63° ENE 20:36:36 10° N
Abrixas 4.4 20:34:51 12° SSW 20:34:51 12° SSW 20:35:17 10° S
Cosmos 1833 Rocket 4.3 20:37:33 13° W 20:39:55 17° WNW 20:43:27 10° NNW
Cosmos 2233 Rocket 4.3 20:36:32 10° SSW 20:42:17 42° W 20:48:04 10° N
ATLAS 5 CENTAUR R/B 2.0 20:40:17 10° SSW 20:44:44 68° ESE 20:49:29 10° NE
Meteor PRIRODA 4.1 20:44:36 10° N 20:48:01 38° WNW 20:51:24 10° SW
Cosmos 1862 Rocket 4.0 20:46:01 10° S 20:50:28 70° E 20:54:56 10° NNE
ATLAS 2AS CENTAUR R/B 3.8 20:43:35 10° NNW 20:51:17 55° ENE 20:58:19 10° SE
MTI 3.8 20:48:54 10° SSE 20:52:05 87° ENE 20:55:18 10° N
Feng Yun 1-1 Rocket 4.2 20:51:13 10° NNE 20:56:49 88° WNW 21:02:14 10° SSW
Cosmos 1862 3.3 20:53:32 10° N 20:57:36 87° W 21:01:40 10° S
ASTEX 1 3.5 20:54:22 10° N 20:59:16 86° E 21:04:09 10° S
Radarsat Rocket 4.5 20:54:10 10° NNE 21:00:10 64° ESE 21:05:54 10° S
NOAA 6 4.1 20:55:28 10° NNE 21:00:38 85° ESE 21:05:48 10° SSW
Cosmos 1346 Rocket 2.9 20:58:15 10° S 21:02:10 81° E 21:06:08 10° N
Cosmos 1980 Rocket 2.2 20:57:43 10° NNW 21:03:16 65° WSW 21:08:48 10° S
Lacrosse 4 Rocket 1.8 21:00:34 10° SW 21:04:51 51° WNW 21:09:13 10° NNE
NOSS 2-1 (C) 4.3 21:02:55 10° WSW 21:06:09 27° NW 21:09:31 10° N
NOSS 2-1 (D) 4.4 21:03:03 10° WSW 21:06:16 26° NW 21:09:36 10° N
SL-24 DEB 4.5 21:01:45 10° N 21:06:27 80° E 21:11:08 10° S
COSMO-SKYMED 1 3.7 21:02:41 10° SSE 21:06:52 50° ENE 21:11:04 10° N
Cosmos 2056 Rocket 3.6 21:01:38 10° NNW 21:06:58 63° WSW 21:12:18 10° S
Kakehashi 4.4 21:02:43 10° W 21:08:35 86° S 21:22:42 10° E
Cosmos 1891 Rocket 4.4 21:03:50 10° S 21:09:50 77° W 21:15:58 10° N
